Falfurrias, TX

5:01 PM CDT on July 23, 2019 (GMT -0500)
Falfurrias

Weather History for KBKS - May, 2019

Change the Weather History Date:

Saturday, May 25, 2019

  Actual Average (WUND) Record (WUND)
Temperature  
Mean Temperature 86 °F -  
Max Temperature 96 °F - - (-1)
Min Temperature 78 °F - - (-1)
Cooling Degree Days 22    
Growing Degree Days 36 (Base 50)    
Moisture  
Dew Point 72 °F    
Average Humidity 65    
Maximum Humidity 83    
Minimum Humidity 40    
Precipitation  
Precipitation 0.00 in - - ()
Sea Level Pressure  
Sea Level Pressure 29.94 in    
Wind  
Wind Speed 12 mph (SE)    
Max Wind Speed 22 mph    
Max Gust Speed 28 mph    
Visibility 10 miles    
Events      
Averages and records for this station are not official NWS values.
T = Trace of Precipitation, MM = Missing Value Source: NWS Daily Summary

Daily Weather History Graph

Daily Weather History Graph

Search for Another Location

Airport or City:

Astronomy

May. 25, 2019 Rise Set
Actual Time 6:39 AM CDT 8:19 PM CDT
Civil Twilight 6:14 AM CDT 8:45 PM CDT
Nautical Twilight 5:43 AM CDT 9:16 PM CDT
Astronomical Twilight 5:10 AM CDT 9:48 PM CDT
Moon 1:26 AM CDT (5/25) 12:33 PM CDT (5/25)
Length of Visible Light 14h 30m
Length of Day
13h 39m
Waning Gibbous, 59% of the Moon is Illuminated
May 25
Waning Gibbous
May 26
Last Quarter
Jun 3
New
Jun 10
First Quarter
Jun 17
Full

Hourly Weather History & Observations

Time (CDT) Temp. Heat Index Dew Point Humidity Pressure Visibility Wind Dir Wind Speed Gust Speed Precip Events Conditions
12:15 AM 81.9 °F 88.2 °F 74.7 °F 79% 29.93 in 10.0 mi ESE 9.2 mph - N/A   Overcast
12:35 AM 81.9 °F 88.2 °F 74.8 °F 79% 29.93 in 10.0 mi ESE 9.2 mph - N/A   Overcast
12:55 AM 81.9 °F 88.0 °F 74.5 °F 78% 29.92 in 10.0 mi SE 12.7 mph 18.4 mph N/A   Overcast
1:15 AM 81.9 °F 88.2 °F 74.7 °F 79% 29.92 in 10.0 mi ESE 9.2 mph - N/A   Overcast
1:35 AM 81.7 °F 87.8 °F 74.7 °F 79% 29.91 in 10.0 mi ESE 10.4 mph - N/A   Overcast
1:55 AM 81.7 °F 87.8 °F 74.7 °F 79% 29.91 in 10.0 mi ESE 9.2 mph - N/A   Overcast
2:15 AM 81.7 °F 87.8 °F 74.5 °F 79% 29.91 in 10.0 mi ESE 12.7 mph - N/A   Overcast
2:35 AM 81.5 °F 87.4 °F 74.3 °F 79% 29.90 in 10.0 mi SE 12.7 mph 17.3 mph N/A   Overcast
2:55 AM 81.5 °F 87.4 °F 74.3 °F 79% 29.90 in 10.0 mi ESE 9.2 mph - N/A   Overcast
3:15 AM 81.5 °F 87.4 °F 74.3 °F 79% 29.90 in 10.0 mi SE 11.5 mph 17.3 mph N/A   Overcast
3:35 AM 81.5 °F 87.4 °F 74.3 °F 79% 29.89 in 10.0 mi SE 12.7 mph 18.4 mph N/A   Overcast
3:55 AM 81.5 °F 87.2 °F 74.1 °F 78% 29.89 in 10.0 mi SE 11.5 mph 16.1 mph N/A   Overcast
4:15 AM 81.5 °F 87.2 °F 73.9 °F 78% 29.89 in 10.0 mi SE 12.7 mph 18.4 mph N/A   Overcast
4:35 AM 81.5 °F 86.9 °F 73.8 °F 77% 29.89 in 10.0 mi SE 11.5 mph 18.4 mph N/A   Overcast
4:55 AM 81.1 °F 86.4 °F 73.6 °F 78% 29.89 in 10.0 mi SE 10.4 mph 17.3 mph N/A   Overcast
5:15 AM 81.1 °F 86.4 °F 73.6 °F 78% 29.90 in 10.0 mi SE 10.4 mph 18.4 mph N/A   Overcast
5:35 AM 81.1 °F 86.4 °F 73.6 °F 78% 29.90 in 10.0 mi SE 12.7 mph 17.3 mph N/A   Overcast
5:55 AM 81.1 °F 86.2 °F 73.4 °F 77% 29.91 in 10.0 mi SE 11.5 mph - N/A   Overcast
6:15 AM 80.8 °F 85.4 °F 73.0 °F 77% 29.92 in 10.0 mi SE 9.2 mph - N/A   Overcast
6:35 AM 80.6 °F 85.2 °F 73.0 °F 78% 29.93 in 10.0 mi SE 10.4 mph 17.3 mph N/A   Overcast
6:55 AM 80.2 °F 84.5 °F 72.7 °F 78% 29.93 in 10.0 mi ESE 9.2 mph 16.1 mph N/A   Mostly Cloudy
7:15 AM 79.9 °F - 72.9 °F 79% 29.94 in 10.0 mi SE 9.2 mph - N/A   Scattered Clouds
7:35 AM 80.1 °F 84.1 °F 72.7 °F 78% 29.95 in 10.0 mi ESE 9.2 mph - N/A   Scattered Clouds
7:55 AM 80.6 °F 85.0 °F 72.9 °F 77% 29.96 in 10.0 mi SE 9.2 mph - N/A   Clear
8:15 AM 81.5 °F 86.5 °F 72.9 °F 75% 29.97 in 10.0 mi SE 12.7 mph 16.1 mph N/A   Scattered Clouds
8:35 AM 81.9 °F 87.0 °F 72.7 °F 74% 29.97 in 10.0 mi SE 11.5 mph 18.4 mph N/A   Mostly Cloudy
8:55 AM 82.8 °F 88.4 °F 73.0 °F 72% 29.98 in 10.0 mi SE 16.1 mph - N/A   Overcast
9:15 AM 83.1 °F 88.4 °F 72.0 °F 69% 29.99 in 10.0 mi SE 16.1 mph 25.3 mph N/A   Mostly Cloudy
9:35 AM 84.2 °F 89.6 °F 71.8 °F 66% 29.99 in 10.0 mi SSE 17.3 mph 23.0 mph N/A   Mostly Cloudy
9:55 AM 86.7 °F 92.9 °F 72.0 °F 61% 29.99 in 10.0 mi SE 16.1 mph 21.9 mph N/A   Scattered Clouds
10:15 AM 87.4 °F 92.7 °F 70.5 °F 57% 29.99 in 10.0 mi SE 17.3 mph 24.2 mph N/A   Mostly Cloudy
10:35 AM 88.9 °F 94.2 °F 70.3 °F 54% 29.99 in 10.0 mi SE 16.1 mph 24.2 mph N/A   Mostly Cloudy
10:55 AM 90.5 °F 96.5 °F 70.5 °F 52% 29.98 in 10.0 mi SE 17.3 mph 21.9 mph N/A   Mostly Cloudy
11:15 AM 90.3 °F 95.7 °F 69.8 °F 51% 29.98 in 10.0 mi SE 13.8 mph 24.2 mph N/A   Mostly Cloudy
11:35 AM 89.8 °F 94.6 °F 69.3 °F 51% 29.98 in 10.0 mi SE 17.3 mph 24.2 mph N/A   Mostly Cloudy
11:55 AM 91.8 °F 96.5 °F 68.9 °F 47% 29.98 in 10.0 mi SSE 16.1 mph 23.0 mph N/A   Mostly Cloudy
12:15 PM 92.1 °F 97.2 °F 69.1 °F 47% 29.98 in 10.0 mi SE 15.0 mph 23.0 mph N/A   Mostly Cloudy
12:35 PM 93.4 °F 98.1 °F 68.7 °F 44% 29.98 in 10.0 mi SE 17.3 mph 23.0 mph N/A   Mostly Cloudy
12:55 PM 92.3 °F 96.5 °F 68.0 °F 45% 29.97 in 10.0 mi SE 17.3 mph - N/A   Mostly Cloudy
1:15 PM 93.2 °F 97.2 °F 67.6 °F 43% 29.96 in 10.0 mi SE 18.4 mph 24.2 mph N/A   Scattered Clouds
1:35 PM 94.6 °F 98.9 °F 67.8 °F 41% 29.95 in 10.0 mi SE 15.0 mph 24.2 mph N/A   Scattered Clouds
1:55 PM 94.1 °F 98.4 °F 67.8 °F 42% 29.95 in 10.0 mi SE 15.0 mph - N/A   Scattered Clouds
2:15 PM 94.5 °F 98.0 °F 66.9 °F 40% 29.94 in 10.0 mi SE 12.7 mph 23.0 mph N/A   Scattered Clouds
2:35 PM 95.7 °F 100.3 °F 68.0 °F 40% 29.93 in 10.0 mi ESE 16.1 mph - N/A   Scattered Clouds
2:55 PM 95.5 °F 101.2 °F 69.3 °F 42% 29.93 in 10.0 mi ESE 17.3 mph 24.2 mph N/A   Scattered Clouds
3:15 PM 93.6 °F 99.5 °F 69.8 °F 46% 29.92 in 10.0 mi ESE 16.1 mph 27.6 mph N/A   Mostly Cloudy
3:35 PM 93.7 °F 100.5 °F 70.9 °F 47% 29.92 in 10.0 mi East 17.3 mph 26.5 mph N/A   Mostly Cloudy
3:55 PM 93.7 °F 99.9 °F 70.3 °F 46% 29.92 in 10.0 mi ESE 15.0 mph 21.9 mph N/A   Scattered Clouds
4:15 PM 93.6 °F 99.5 °F 69.8 °F 46% 29.91 in 10.0 mi SE 19.6 mph 25.3 mph N/A   Scattered Clouds
4:35 PM 93.4 °F 99.2 °F 70.0 °F 46% 29.91 in 10.0 mi ESE 17.3 mph 24.2 mph N/A   Clear
4:55 PM 92.3 °F 98.1 °F 70.2 °F 48% 29.91 in 10.0 mi ESE 17.3 mph 25.3 mph N/A   Clear
5:15 PM 91.9 °F 97.4 °F 70.0 °F 48% 29.91 in 10.0 mi East 21.9 mph 26.5 mph N/A   Clear
5:35 PM 91.0 °F 97.1 °F 70.9 °F 51% 29.90 in 10.0 mi East 18.4 mph 27.6 mph N/A   Clear
5:55 PM 90.5 °F 96.5 °F 70.7 °F 52% 29.90 in 10.0 mi ESE 16.1 mph 23.0 mph N/A   Clear
6:15 PM 89.2 °F 94.9 °F 70.5 °F 54% 29.90 in 10.0 mi ESE 18.4 mph 26.5 mph N/A   Clear
6:35 PM 88.2 °F 93.7 °F 70.7 °F 56% 29.90 in 10.0 mi ESE 17.3 mph 24.2 mph N/A   Clear
6:55 PM 86.9 °F 92.5 °F 70.9 °F 59% 29.91 in 10.0 mi ESE 15.0 mph 24.2 mph N/A   Clear
7:15 PM 86.0 °F 91.1 °F 70.7 °F 60% 29.92 in 10.0 mi ESE 15.0 mph 23.0 mph N/A   Clear
7:35 PM 84.6 °F 89.7 °F 71.1 °F 64% 29.93 in 10.0 mi ESE 13.8 mph 21.9 mph N/A   Clear
7:55 PM 83.3 °F 87.9 °F 70.9 °F 66% 29.93 in 10.0 mi ESE 15.0 mph 20.7 mph N/A   Clear
8:15 PM 82.4 °F 86.7 °F 71.1 °F 68% 29.94 in 10.0 mi ESE 9.2 mph - N/A   Clear
8:35 PM 81.5 °F 85.5 °F 71.1 °F 70% 29.94 in 10.0 mi ESE 8.1 mph 17.3 mph N/A   Clear
8:55 PM 80.8 °F 84.7 °F 71.4 °F 73% 29.94 in 10.0 mi ESE 6.9 mph - N/A   Clear
9:15 PM 80.2 °F 84.0 °F 71.6 °F 75% 29.96 in 10.0 mi ESE 9.2 mph - N/A   Clear
9:35 PM 79.9 °F - 71.8 °F 76% 29.96 in 10.0 mi ESE 9.2 mph - N/A   Clear
9:55 PM 79.7 °F - 72.1 °F 78% 29.97 in 10.0 mi ESE 8.1 mph - N/A   Scattered Clouds
10:15 PM 79.3 °F - 72.5 °F 79% 29.97 in 10.0 mi ESE 10.4 mph - N/A   Scattered Clouds
10:35 PM 79.2 °F - 72.5 °F 80% 29.98 in 10.0 mi ESE 8.1 mph - N/A   Clear
10:55 PM 79.0 °F - 72.7 °F 81% 29.98 in 10.0 mi ESE 6.9 mph - N/A   Scattered Clouds
11:15 PM 78.8 °F - 72.9 °F 82% 29.99 in 10.0 mi ESE 9.2 mph - N/A   Clear
11:35 PM 79.0 °F - 73.0 °F 82% 30.00 in 10.0 mi ESE 9.2 mph - N/A   Scattered Clouds
11:55 PM 78.8 °F - 73.4 °F 83% 30.00 in 10.0 mi ESE 5.8 mph - N/A   Scattered Clouds